HS5AM-10 Weather Reports


Display with metric or nautical units.
time (UTC)temp
F
wind
direction
speed
MPH
gust
MPH
rain 1hr
in
rain 24hr
in
rain mn
in
humidity
%
barometer
mb
20260505013646 84 0 0.0 0.0 0.00 0.00 0.00 76 987.0
20260505012519 84 0 0.0 0.0 0.00 0.00 0.00 76 986.0
20260505011351 84 0 0.0 0.0 0.00 0.00 0.00 76 986.0
20260505010224 84 0 0.0 0.0 0.00 0.00 0.00 76 986.0
20260505005057 84 0 0.0 0.0 0.00 0.00 0.00 76 986.0
20260505003930 84 0 0.0 0.0 0.00 0.00 0.00 75 986.0
20260505002803 84 0 0.0 0.0 0.00 0.00 0.00 74 986.0
20260505001645 85 0 0.0 0.0 0.00 0.00 0.00 73 986.0
20260505001635 85 0 0.0 0.0 0.00 0.00 0.00 73 986.0
20260505000507 85 0 0.0 0.0 0.00 0.00 0.00 69 985.0
20260504235340 85 0 0.0 0.0 0.00 0.00 0.00 68 985.0
20260504234212 85 0 0.0 0.0 0.00 0.00 0.00 68 985.0
20260504233044 86 0 0.0 0.0 0.00 0.00 0.00 67 985.0
20260504231923 85 0 0.0 0.0 0.00 0.00 0.00 67 985.0
20260504230729 86 0 0.0 0.0 0.00 0.00 0.00 67 984.0
20260504225705 86 0 0.0 0.0 0.00 0.00 0.00 67 984.0
20260504224640 86 0 0.0 0.0 0.00 0.00 0.00 66 984.0
20260504223616 86 0 0.0 0.0 0.00 0.00 0.00 66 984.0
20260504222553 86 0 0.0 0.0 0.00 0.00 0.00 66 984.0
20260504221529 86 0 0.0 0.0 0.00 0.00 0.00 66 984.0
20260504220505 86 0 0.0 0.0 0.00 0.00 0.00 65 984.0
20260504215441 86 0 0.0 0.0 0.00 0.00 0.00 65 984.0
20260504214417 86 0 0.0 0.0 0.00 0.00 0.00 65 984.0
20260504213353 86 0 0.0 0.0 0.00 0.00 0.00 65 984.0
20260504212329 86 0 0.0 0.0 0.00 0.00 0.00 65 984.0
20260504211305 87 0 0.0 0.0 0.00 0.00 0.00 65 984.0
20260504210241 87 0 0.0 0.0 0.00 0.00 0.00 65 984.0
20260504205217 87 0 0.0 0.0 0.00 0.00 0.00 64 984.0
20260504204153 87 0 0.0 0.0 0.00 0.00 0.00 64 984.0
20260504203129 87 0 0.0 0.0 0.00 0.00 0.00 64 984.0
20260504202104 87 0 0.0 0.0 0.00 0.00 0.00 64 984.0
20260504201040 87 0 0.0 0.0 0.00 0.00 0.00 63 984.0
20260504200016 87 0 0.0 0.0 0.00 0.00 0.00 63 984.0
20260504194951 87 0 0.0 0.0 0.00 0.00 0.00 63 984.0
20260504193928 88 0 0.0 0.0 0.00 0.00 0.00 63 984.0
20260504192904 88 0 0.0 0.0 0.00 0.00 0.00 63 984.0
20260504191840 88 0 0.0 0.0 0.00 0.00 0.00 63 984.0
20260504190816 88 0 0.0 0.0 0.00 0.00 0.00 63 984.0
20260504185752 88 0 0.0 0.0 0.00 0.00 0.00 62 985.0
20260504184728 88 0 0.0 0.0 0.00 0.00 0.00 62 985.0
20260504183704 89 0 0.0 0.0 0.00 0.00 0.00 62 985.0
20260504182640 89 0 0.0 0.0 0.00 0.00 0.00 61 985.0
20260504181616 89 0 0.0 0.0 0.00 0.00 0.00 61 985.0
20260504180551 89 0 0.0 0.0 0.00 0.00 0.00 61 985.0
20260504175539 89 0 0.0 0.0 0.00 0.00 0.00 60 985.0
20260504175528 89 0 0.0 0.0 0.00 0.00 0.00 60 985.0
20260504174504 89 0 0.0 0.0 0.00 0.00 0.00 60 986.0
20260504173440 90 0 0.0 0.0 0.00 0.00 0.00 59 986.0
20260504172416 90 0 0.0 0.0 0.00 0.00 0.00 59 986.0
20260504171352 90 0 0.0 0.0 0.00 0.00 0.00 59 986.0
20260504170328 90 0 0.0 0.0 0.00 0.00 0.00 59 986.0
20260504160105 92 0 0.0 0.0 0.00 0.00 0.00 57 986.0
20260504150905 92 0 0.0 0.0 0.00 0.00 0.00 56 984.0
20260504140641 95 0 0.0 0.0 0.00 0.00 0.00 54 982.0
20260504130417 98 0 0.0 0.0 0.00 0.00 0.00 51 980.0
20260504120153 103 0 0.0 0.0 0.00 0.00 0.00 36 979.0
20260504081306 108 0 0.0 0.0 0.00 0.00 0.00 27 979.0
20260504080242 108 0 0.0 0.0 0.00 0.00 0.00 27 979.0
20260504050555 99 0 0.0 0.0 0.00 0.00 0.00 37 983.0
20260504045531 98 0 0.0 0.0 0.00 0.00 0.00 39 983.0
20260504044507 98 0 0.0 0.0 0.00 0.00 0.00 41 983.0
20260504043443 97 0 0.0 0.0 0.00 0.00 0.00 42 983.0
20260504042420 97 0 0.0 0.0 0.00 0.00 0.00 42 983.0
20260504041356 96 0 0.0 0.0 0.00 0.00 0.00 44 983.0
20260504040332 95 0 0.0 0.0 0.00 0.00 0.00 44 983.0
20260504035308 95 0 0.0 0.0 0.00 0.00 0.00 45 983.0
20260504034244 94 0 0.0 0.0 0.00 0.00 0.00 46 983.0
20260504033220 94 0 0.0 0.0 0.00 0.00 0.00 47 984.0
20260504032156 93 0 0.0 0.0 0.00 0.00 0.00 47 984.0
20260504031132 93 0 0.0 0.0 0.00 0.00 0.00 48 984.0
20260504030108 92 0 0.0 0.0 0.00 0.00 0.00 48 984.0
20260504025044 92 0 0.0 0.0 0.00 0.00 0.00 48 984.0
20260504024020 91 0 0.0 0.0 0.00 0.00 0.00 50 984.0
20260504022957 91 0 0.0 0.0 0.00 0.00 0.00 51 984.0
20260504021932 90 0 0.0 0.0 0.00 0.00 0.00 53 984.0
20260504020908 90 0 0.0 0.0 0.00 0.00 0.00 53 984.0
20260504015845 89 0 0.0 0.0 0.00 0.00 0.00 54 984.0
20260504014821 89 0 0.0 0.0 0.00 0.00 0.00 55 984.0